Cherry Point MCAS /Cunningham Field/
KNKT : now visible

Airfield :











YOU CAN JOIN US ON...

 
LOGIN :

Register | Disclaimer

   EN    FR    IT 

 









Legend :    VFR   Marginal VFR   IFR   Intensive IFR   Very Intensive IFR
Visi :
Ceiling :
>= 8 km
>= 3000ft
5 to 8 km
1000 to 3000 ft
1500m to 5 km
500 to 1000 ft
800 to 1500m
200 to 500 ft
< 800m
< 200 ft
Symbols :   Thunderstorms  Fog  Heavy snow  Heavy precipitations  Wind > 20 kt






- Airport Elevation : 29 ft


KNKT - Cherry Point MCAS /Cunningham Field/

CURRENT METAR :
  • 280954Z 36006KT 10SM CLR 03/M06 A3013 RMK AO2 SLP200 T00331061

EXPIRED METARs :
  • 280854Z 35006KT 10SM CLR 03/M05 A3012 RMK AO2 SLP197 T00331050 51012
  • 280754Z 30005KT 10SM CLR 03/M05 A3012 RMK AO2 SLP195 T00331050

TAF TAF KNKT
Valid from the 28 at 09:00 until the 29 at 09:00 UTC


2809/2909 VRB05KT 9999 SKC QNH3000INS
BECMG 2819/2821 23009KT 9999 SCT035 BKN060 QNH2996INS T01/2812Z T12/2820Z



MET'MAP, your aeronautical weather chart ! - Copyright ORBIFLY December 2007 - Disclaimer

ORBIFLY MET'MAP TEAM :

Programming & Development : Alexandra Zaïnal
Concept & original design : Baudouin d'Aumeries
Assistance for programming : Marc-Olivier Méhu
Technical & hardware support : Manuel Goepfert

Contact : metmap@orbifly.com




SOURCES & CREDITS :

   NOAA       Earth
Advisory